Time,TemperatureF,DewpointF,PressureIn,WindDirection,WindDirectionDegrees,WindSpeedMPH,WindSpeedGustMPH,Humidity,HourlyPrecipIn,Conditions,Clouds,dailyrainin,SoftwareType,DateUTC
2013-10-09 00:00:00,47.1,41.9,30.34,North,0,0.0,0.0,82,0.00,,,0.00,WeatherCatV1.21B27,2013-10-09 04:00:00,
2013-10-09 00:01:00,47.1,41.9,30.34,North,0,0.0,0.0,82,0.00,,,0.00,WeatherCatV1.21B27,2013-10-09 04:01:00,
2013-10-09 00:06:00,46.9,41.7,30.34,North,0,0.0,0.0,82,0.00,,,0.00,WeatherCatV1.21B27,2013-10-09 04:06:00,
2013-10-09 00:11:00,46.7,41.5,30.34,North,0,0.0,0.0,82,0.00,,,0.00,WeatherCatV1.21B27,2013-10-09 04:11:00,
2013-10-09 00:16:00,46.7,41.8,30.34,North,0,0.0,0.0,83,0.00,,,0.00,WeatherCatV1.21B27,2013-10-09 04:16:00,
2013-10-09 00:21:00,46.7,41.8,30.35,North,0,0.0,0.0,83,0.00,,,0.00,WeatherCatV1.21B27,2013-10-09 04:21:00,
2013-10-09 00:26:00,46.8,41.9,30.35,North,0,0.0,0.0,83,0.00,,,0.00,WeatherCatV1.21B27,2013-10-09 04:26:00,
2013-10-09 00:31:00,46.8,41.9,30.35,North,0,0.0,0.0,83,0.00,,,0.00,WeatherCatV1.21B27,2013-10-09 04:31:00,
2013-10-09 00:36:00,46.7,41.8,30.35,North,0,0.0,0.0,83,0.00,,,0.00,WeatherCatV1.21B27,2013-10-09 04:36:00,
2013-10-09 00:41:00,46.7,41.8,30.35,North,0,0.0,0.0,83,0.00,,,0.00,WeatherCatV1.21B27,2013-10-09 04:41:00,
2013-10-09 00:46:00,46.7,41.8,30.34,North,0,0.0,0.0,83,0.00,,,0.00,WeatherCatV1.21B27,2013-10-09 04:46:00,
2013-10-09 00:51:00,46.6,41.7,30.34,North,0,0.0,0.0,83,0.00,,,0.00,WeatherCatV1.21B27,2013-10-09 04:51:00,
2013-10-09 00:56:00,46.5,41.6,30.34,North,0,0.0,0.0,83,0.00,,,0.00,WeatherCatV1.21B27,2013-10-09 04:56:00,
2013-10-09 01:01:00,46.5,41.6,30.34,North,0,0.0,0.0,83,0.00,,,0.00,WeatherCatV1.21B27,2013-10-09 05:01:00,
2013-10-09 01:06:00,46.4,41.5,30.34,North,0,0.0,0.0,83,0.00,,,0.00,WeatherCatV1.21B27,2013-10-09 05:06:00,
2013-10-09 01:11:00,46.2,41.3,30.34,North,0,0.0,0.0,83,0.00,,,0.00,WeatherCatV1.21B27,2013-10-09 05:11:00,
2013-10-09 01:16:00,46.1,41.5,30.34,North,0,0.0,0.0,84,0.00,,,0.00,WeatherCatV1.21B27,2013-10-09 05:16:00,
2013-10-09 01:21:00,46.2,41.6,30.35,North,0,0.0,0.0,84,0.00,,,0.00,WeatherCatV1.21B27,2013-10-09 05:21:00,
2013-10-09 01:26:00,46.5,41.9,30.34,North,0,0.0,0.0,84,0.00,,,0.00,WeatherCatV1.21B27,2013-10-09 05:26:00,
2013-10-09 01:31:00,46.4,41.8,30.35,North,0,0.0,0.0,84,0.00,,,0.00,WeatherCatV1.21B27,2013-10-09 05:31:00,
2013-10-09 01:36:00,46.6,42.0,30.35,North,0,0.0,0.0,84,0.00,,,0.00,WeatherCatV1.21B27,2013-10-09 05:36:00,
2013-10-09 01:41:00,46.6,42.0,30.35,North,0,0.0,0.0,84,0.00,,,0.00,WeatherCatV1.21B27,2013-10-09 05:41:00,
2013-10-09 01:46:00,46.7,41.8,30.35,North,0,0.0,0.0,83,0.00,,,0.00,WeatherCatV1.21B27,2013-10-09 05:46:00,
2013-10-09 01:51:00,46.8,41.9,30.35,North,0,0.0,0.0,83,0.00,,,0.00,WeatherCatV1.21B27,2013-10-09 05:51:00,
2013-10-09 01:56:00,46.9,42.0,30.35,North,0,0.0,0.0,83,0.00,,,0.00,WeatherCatV1.21B27,2013-10-09 05:56:00,
2013-10-09 02:01:00,46.8,41.6,30.35,NE,53,0.0,0.0,82,0.00,,,0.00,WeatherCatV1.21B27,2013-10-09 06:01:00,
2013-10-09 02:06:00,46.8,41.6,30.35,NE,53,0.0,0.0,82,0.00,,,0.00,WeatherCatV1.21B27,2013-10-09 06:06:00,
2013-10-09 02:11:00,46.6,41.4,30.35,NE,53,0.0,0.0,82,0.00,,,0.00,WeatherCatV1.21B27,2013-10-09 06:11:00,
2013-10-09 02:16:00,46.5,41.3,30.35,NE,53,0.0,0.0,82,0.00,,,0.00,WeatherCatV1.21B27,2013-10-09 06:16:00,
2013-10-09 02:21:00,46.3,41.1,30.35,NE,53,0.0,0.0,82,0.00,,,0.00,WeatherCatV1.21B27,2013-10-09 06:21:00,
2013-10-09 02:26:00,46.0,40.8,30.35,NE,53,0.0,0.0,82,0.00,,,0.00,WeatherCatV1.21B27,2013-10-09 06:26:00,
2013-10-09 02:31:00,45.7,40.8,30.35,NE,53,0.0,0.0,83,0.00,,,0.00,WeatherCatV1.21B27,2013-10-09 06:31:00,
2013-10-09 02:36:00,45.6,40.7,30.35,NE,53,0.0,0.0,83,0.00,,,0.00,WeatherCatV1.21B27,2013-10-09 06:36:00,
2013-10-09 02:41:00,45.5,40.6,30.35,NE,53,0.0,0.0,83,0.00,,,0.00,WeatherCatV1.21B27,2013-10-09 06:41:00,
2013-10-09 02:46:00,45.6,40.7,30.35,NE,53,0.0,0.0,83,0.00,,,0.00,WeatherCatV1.21B27,2013-10-09 06:46:00,
2013-10-09 02:51:00,45.5,40.6,30.35,NE,53,0.0,0.0,83,0.00,,,0.00,WeatherCatV1.21B27,2013-10-09 06:51:00,
2013-10-09 02:56:00,45.4,40.5,30.36,NE,53,0.0,0.0,83,0.00,,,0.00,WeatherCatV1.21B27,2013-10-09 06:56:00,
2013-10-09 03:01:00,45.4,40.5,30.35,NE,53,0.0,0.0,83,0.00,,,0.00,WeatherCatV1.21B27,2013-10-09 07:01:00,
2013-10-09 03:06:00,45.3,40.5,30.35,NE,53,0.0,0.0,83,0.00,,,0.00,WeatherCatV1.21B27,2013-10-09 07:06:00,
2013-10-09 03:11:00,45.2,40.3,30.35,NE,53,0.0,0.0,83,0.00,,,0.00,WeatherCatV1.21B27,2013-10-09 07:11:00,
2013-10-09 03:16:00,45.2,40.3,30.35,NE,53,0.0,0.0,83,0.00,,,0.00,WeatherCatV1.21B27,2013-10-09 07:16:00,
2013-10-09 03:21:00,45.0,40.5,30.35,NE,53,0.0,0.0,84,0.00,,,0.00,WeatherCatV1.21B27,2013-10-09 07:21:00,
2013-10-09 03:26:00,44.6,39.8,30.35,NE,53,0.0,0.0,83,0.00,,,0.00,WeatherCatV1.21B27,2013-10-09 07:26:00,
2013-10-09 03:31:00,44.6,40.1,30.35,NE,53,0.0,0.0,84,0.00,,,0.00,WeatherCatV1.21B27,2013-10-09 07:31:00,
2013-10-09 03:36:00,44.4,39.9,30.35,NE,53,0.0,0.0,84,0.00,,,0.00,WeatherCatV1.21B27,2013-10-09 07:36:00,
2013-10-09 03:41:00,44.2,39.7,30.35,NE,53,0.0,0.0,84,0.00,,,0.00,WeatherCatV1.21B27,2013-10-09 07:41:00,
2013-10-09 03:46:00,44.1,39.6,30.35,NE,53,0.0,0.0,84,0.00,,,0.00,WeatherCatV1.21B27,2013-10-09 07:46:00,
2013-10-09 03:51:00,44.0,39.5,30.35,NE,53,0.0,0.0,84,0.00,,,0.00,WeatherCatV1.21B27,2013-10-09 07:51:00,
2013-10-09 03:56:00,44.1,39.9,30.35,NE,53,0.0,0.0,85,0.00,,,0.00,WeatherCatV1.21B27,2013-10-09 07:56:00,
2013-10-09 04:01:00,44.1,39.9,30.35,NE,53,0.0,0.0,85,0.00,,,0.00,WeatherCatV1.21B27,2013-10-09 08:01:00,
2013-10-09 04:06:00,44.4,40.2,30.35,NE,53,0.0,0.0,85,0.00,,,0.00,WeatherCatV1.21B27,2013-10-09 08:06:00,
2013-10-09 04:11:00,44.5,40.3,30.35,NE,53,0.0,0.0,85,0.00,,,0.00,WeatherCatV1.21B27,2013-10-09 08:11:00,
2013-10-09 04:16:00,44.4,40.2,30.36,NE,53,0.0,0.0,85,0.00,,,0.00,WeatherCatV1.21B27,2013-10-09 08:16:00,
2013-10-09 04:21:00,44.4,40.2,30.36,NE,53,0.0,0.0,85,0.00,,,0.00,WeatherCatV1.21B27,2013-10-09 08:21:00,
2013-10-09 04:26:00,44.4,40.2,30.36,NE,53,0.0,0.0,85,0.00,,,0.00,WeatherCatV1.21B27,2013-10-09 08:26:00,
2013-10-09 04:31:00,44.6,40.4,30.36,NE,53,0.0,0.0,85,0.00,,,0.00,WeatherCatV1.21B27,2013-10-09 08:31:00,
2013-10-09 04:36:00,44.6,40.4,30.36,NE,53,0.0,0.0,85,0.00,,,0.00,WeatherCatV1.21B27,2013-10-09 08:36:00,
2013-10-09 04:41:00,44.8,40.6,30.36,NE,53,0.0,0.0,85,0.00,,,0.00,WeatherCatV1.21B27,2013-10-09 08:41:00,
2013-10-09 04:46:00,45.2,40.7,30.36,NNW,332,0.0,1.0,84,0.00,,,0.00,WeatherCatV1.21B27,2013-10-09 08:46:00,
2013-10-09 04:51:00,45.3,40.8,30.37,North,355,0.0,2.0,84,0.00,,,0.00,WeatherCatV1.21B27,2013-10-09 08:51:00,
2013-10-09 04:56:00,45.6,41.0,30.36,North,355,0.0,0.0,84,0.00,,,0.00,WeatherCatV1.21B27,2013-10-09 08:56:00,
2013-10-09 05:01:00,46.0,41.1,30.37,North,355,0.0,0.0,83,0.00,,,0.00,WeatherCatV1.21B27,2013-10-09 09:01:00,
2013-10-09 05:06:00,46.1,40.9,30.36,North,355,0.0,0.0,82,0.00,,,0.00,WeatherCatV1.21B27,2013-10-09 09:06:00,
2013-10-09 05:11:00,46.1,40.9,30.36,North,355,0.0,1.0,82,0.00,,,0.00,WeatherCatV1.21B27,2013-10-09 09:11:00,
2013-10-09 05:16:00,46.2,41.0,30.36,North,355,0.0,1.0,82,0.00,,,0.00,WeatherCatV1.21B27,2013-10-09 09:16:00,
2013-10-09 05:21:00,46.1,40.6,30.36,North,355,0.0,0.0,81,0.00,,,0.00,WeatherCatV1.21B27,2013-10-09 09:21:00,
2013-10-09 05:26:00,46.2,40.7,30.37,North,355,0.0,0.0,81,0.00,,,0.00,WeatherCatV1.21B27,2013-10-09 09:26:00,
2013-10-09 05:31:00,46.1,40.9,30.36,North,355,0.0,0.0,82,0.00,,,0.00,WeatherCatV1.21B27,2013-10-09 09:31:00,
2013-10-09 05:36:00,46.0,40.5,30.36,North,355,0.0,0.0,81,0.00,,,0.00,WeatherCatV1.21B27,2013-10-09 09:36:00,
2013-10-09 05:41:00,46.1,40.9,30.36,North,351,0.0,1.0,82,0.00,,,0.00,WeatherCatV1.21B27,2013-10-09 09:41:00,
2013-10-09 05:46:00,46.1,40.9,30.36,NNW,332,0.0,0.0,82,0.00,,,0.00,WeatherCatV1.21B27,2013-10-09 09:46:00,
2013-10-09 05:51:00,46.1,40.6,30.36,NNW,332,0.0,1.0,81,0.00,,,0.00,WeatherCatV1.21B27,2013-10-09 09:51:00,
2013-10-09 05:56:00,45.7,40.2,30.37,NNW,332,0.0,0.0,81,0.00,,,0.00,WeatherCatV1.21B27,2013-10-09 09:56:00,
2013-10-09 06:01:00,45.7,40.2,30.37,NNW,332,0.0,0.0,81,0.00,,,0.00,WeatherCatV1.21B27,2013-10-09 10:01:00,
2013-10-09 06:06:00,45.6,40.4,30.37,NNW,332,0.0,0.0,82,0.00,,,0.00,WeatherCatV1.21B27,2013-10-09 10:06:00,
2013-10-09 06:11:00,45.6,40.4,30.38,NNW,332,0.0,0.0,82,0.00,,,0.00,WeatherCatV1.21B27,2013-10-09 10:11:00,
2013-10-09 06:16:00,45.4,40.2,30.38,NNW,332,0.0,0.0,82,0.00,,,0.00,WeatherCatV1.21B27,2013-10-09 10:16:00,
2013-10-09 06:21:00,45.3,40.1,30.38,NNW,332,0.0,0.0,82,0.00,,,0.00,WeatherCatV1.21B27,2013-10-09 10:21:00,
2013-10-09 06:26:00,45.2,40.0,30.38,NNW,332,0.0,1.0,82,0.00,,,0.00,WeatherCatV1.21B27,2013-10-09 10:26:00,
2013-10-09 06:31:00,45.0,39.8,30.38,NNW,332,0.0,0.0,82,0.00,,,0.00,WeatherCatV1.21B27,2013-10-09 10:31:00,
2013-10-09 06:36:00,44.9,39.7,30.38,NNW,332,0.0,0.0,82,0.00,,,0.00,WeatherCatV1.21B27,2013-10-09 10:36:00,
2013-10-09 06:41:00,44.9,40.0,30.38,NE,35,0.0,0.0,83,0.00,,,0.00,WeatherCatV1.21B27,2013-10-09 10:41:00,
2013-10-09 06:46:00,44.9,39.7,30.38,NE,35,0.0,0.0,82,0.00,,,0.00,WeatherCatV1.21B27,2013-10-09 10:46:00,
2013-10-09 06:51:00,44.9,39.7,30.38,NE,35,0.0,0.0,82,0.00,,,0.00,WeatherCatV1.21B27,2013-10-09 10:51:00,
2013-10-09 06:56:00,44.8,39.7,30.38,NE,35,0.0,0.0,82,0.00,,,0.00,WeatherCatV1.21B27,2013-10-09 10:56:00,
2013-10-09 07:01:00,44.7,39.5,30.38,NE,35,0.0,0.0,82,0.00,,,0.00,WeatherCatV1.21B27,2013-10-09 11:01:00,
2013-10-09 07:06:00,44.4,39.2,30.38,NE,35,0.0,0.0,82,0.00,,,0.00,WeatherCatV1.21B27,2013-10-09 11:06:00,
2013-10-09 07:11:00,44.4,39.6,30.38,NE,35,0.0,1.0,83,0.00,,,0.00,WeatherCatV1.21B27,2013-10-09 11:11:00,
2013-10-09 07:16:00,44.5,39.7,30.39,NE,35,0.0,1.0,83,0.00,,,0.00,WeatherCatV1.21B27,2013-10-09 11:16:00,
2013-10-09 07:21:00,44.6,39.8,30.38,NE,35,0.0,1.0,83,0.00,,,0.00,WeatherCatV1.21B27,2013-10-09 11:21:00,
2013-10-09 07:26:00,44.6,39.8,30.39,NE,35,0.0,1.0,83,0.00,,,0.00,WeatherCatV1.21B27,2013-10-09 11:26:00,
2013-10-09 07:31:00,44.6,39.8,30.39,NE,38,0.0,0.0,83,0.00,,,0.00,WeatherCatV1.21B27,2013-10-09 11:31:00,
2013-10-09 07:36:00,44.5,39.7,30.40,ENE,66,0.0,0.0,83,0.00,,,0.00,WeatherCatV1.21B27,2013-10-09 11:36:00,
2013-10-09 07:41:00,44.3,39.2,30.40,ENE,66,0.0,0.0,82,0.00,,,0.00,WeatherCatV1.21B27,2013-10-09 11:41:00,
2013-10-09 07:46:00,44.4,39.6,30.40,ENE,66,0.0,0.0,83,0.00,,,0.00,WeatherCatV1.21B27,2013-10-09 11:46:00,
2013-10-09 07:51:00,44.4,39.6,30.40,NNW,341,1.0,1.0,83,0.00,,,0.00,WeatherCatV1.21B27,2013-10-09 11:51:00,
2013-10-09 07:56:00,44.4,39.6,30.40,NNW,341,1.0,1.0,83,0.00,,,0.00,WeatherCatV1.21B27,2013-10-09 11:56:00,
2013-10-09 08:01:00,44.5,39.7,30.41,WSW,241,0.0,0.0,83,0.00,,,0.00,WeatherCatV1.21B27,2013-10-09 12:01:00,
2013-10-09 08:03:00,44.5,39.7,30.41,WSW,241,0.0,0.0,83,0.00,,,0.00,WeatherCatV1.21B27,2013-10-09 12:03:00,
2013-10-09 08:08:00,44.8,40.0,30.40,NNW,348,0.0,2.0,83,0.00,,,0.00,WeatherCatV1.21B27,2013-10-09 12:08:00,
2013-10-09 08:13:00,45.2,40.0,30.41,NNW,348,0.0,0.0,82,0.00,,,0.00,WeatherCatV1.21B27,2013-10-09 12:13:00,
2013-10-09 08:18:00,45.4,40.2,30.42,NNW,348,0.0,0.0,82,0.00,,,0.00,WeatherCatV1.21B27,2013-10-09 12:18:00,
2013-10-09 08:23:00,45.8,40.6,30.42,NNW,348,0.0,0.0,82,0.00,,,0.00,WeatherCatV1.21B27,2013-10-09 12:23:00,
2013-10-09 08:28:00,46.4,41.2,30.42,NNW,348,0.0,1.0,82,0.00,,,0.00,WeatherCatV1.21B27,2013-10-09 12:28:00,
2013-10-09 08:33:00,47.1,41.6,30.41,NNW,348,0.0,0.0,81,0.00,,,0.00,WeatherCatV1.21B27,2013-10-09 12:33:00,
2013-10-09 08:38:00,47.7,42.2,30.40,NW,315,1.0,1.0,81,0.00,,,0.00,WeatherCatV1.21B27,2013-10-09 12:38:00,
2013-10-09 08:43:00,48.9,42.3,30.40,NW,306,0.0,2.0,78,0.00,,,0.00,WeatherCatV1.21B27,2013-10-09 12:43:00,
2013-10-09 08:48:00,49.1,42.9,30.41,NW,308,1.0,2.0,79,0.00,,,0.00,WeatherCatV1.21B27,2013-10-09 12:48:00,
2013-10-09 08:53:00,49.4,42.8,30.41,North,0,1.0,2.0,78,0.00,,,0.00,WeatherCatV1.21B27,2013-10-09 12:53:00,
2013-10-09 08:58:00,49.8,43.2,30.42,NNW,348,0.0,0.0,78,0.00,,,0.00,WeatherCatV1.21B27,2013-10-09 12:58:00,
2013-10-09 09:03:00,50.5,43.6,30.42,SE,126,2.0,3.0,77,0.00,,,0.00,WeatherCatV1.21B27,2013-10-09 13:03:00,
2013-10-09 09:08:00,51.4,42.7,30.42,NW,317,2.0,3.0,72,0.00,,,0.00,WeatherCatV1.21B27,2013-10-09 13:08:00,
2013-10-09 09:13:00,52.0,43.3,30.42,NW,316,6.0,6.0,72,0.00,,,0.00,WeatherCatV1.21B27,2013-10-09 13:13:00,
2013-10-09 09:18:00,52.5,43.0,30.42,NNW,335,3.0,4.0,70,0.00,,,0.00,WeatherCatV1.21B27,2013-10-09 13:18:00,
2013-10-09 09:23:00,52.7,42.4,30.42,NE,51,1.0,2.0,68,0.00,,,0.00,WeatherCatV1.21B27,2013-10-09 13:23:00,
2013-10-09 09:28:00,52.9,43.8,30.42,WNW,302,2.0,4.0,71,0.00,,,0.00,WeatherCatV1.21B27,2013-10-09 13:28:00,
2013-10-09 09:33:00,53.2,42.9,30.42,North,5,0.0,4.0,68,0.00,,,0.00,WeatherCatV1.21B27,2013-10-09 13:33:00,
2013-10-09 09:38:00,53.4,43.1,30.42,NW,322,0.0,3.0,68,0.00,,,0.00,WeatherCatV1.21B27,2013-10-09 13:38:00,
2013-10-09 09:43:00,53.9,43.6,30.42,ENE,67,0.0,1.0,68,0.00,,,0.00,WeatherCatV1.21B27,2013-10-09 13:43:00,
2013-10-09 09:48:00,54.1,43.4,30.42,NNW,334,1.0,4.0,67,0.00,,,0.00,WeatherCatV1.21B27,2013-10-09 13:48:00,
2013-10-09 09:53:00,54.4,43.3,30.42,WNW,292,0.0,0.0,66,0.00,,,0.00,WeatherCatV1.21B27,2013-10-09 13:53:00,
2013-10-09 09:58:00,54.7,43.2,30.42,ENE,67,0.0,2.0,65,0.00,,,0.00,WeatherCatV1.21B27,2013-10-09 13:58:00,
2013-10-09 10:03:00,55.2,44.0,30.42,NNW,329,3.0,3.0,66,0.00,,,0.00,WeatherCatV1.21B27,2013-10-09 14:03:00,
2013-10-09 10:08:00,55.4,43.4,30.42,ENE,65,1.0,2.0,64,0.00,,,0.00,WeatherCatV1.21B27,2013-10-09 14:08:00,
2013-10-09 10:13:00,55.6,44.0,30.42,North,5,0.0,1.0,65,0.00,,,0.00,WeatherCatV1.21B27,2013-10-09 14:13:00,
2013-10-09 10:18:00,55.5,43.9,30.42,West,270,1.0,4.0,65,0.00,,,0.00,WeatherCatV1.21B27,2013-10-09 14:18:00,
2013-10-09 10:23:00,55.8,43.4,30.42,NNW,337,3.0,7.0,63,0.00,,,0.00,WeatherCatV1.21B27,2013-10-09 14:23:00,
2013-10-09 10:28:00,55.7,43.3,30.42,ENE,57,3.0,5.0,63,0.00,,,0.00,WeatherCatV1.21B27,2013-10-09 14:28:00,
2013-10-09 10:33:00,56.0,43.6,30.42,NNE,24,1.0,6.0,63,0.00,,,0.00,WeatherCatV1.21B27,2013-10-09 14:33:00,
2013-10-09 10:38:00,55.9,43.9,30.42,WNW,286,1.0,3.0,64,0.00,,,0.00,WeatherCatV1.21B27,2013-10-09 14:38:00,
2013-10-09 10:43:00,56.4,44.0,30.42,SE,136,1.0,3.0,63,0.00,,,0.00,WeatherCatV1.21B27,2013-10-09 14:43:00,
2013-10-09 10:48:00,56.2,42.9,30.41,NNW,327,1.0,5.0,61,0.00,,,0.00,WeatherCatV1.21B27,2013-10-09 14:48:00,
2013-10-09 10:53:00,56.3,43.0,30.41,SE,135,3.0,7.0,61,0.00,,,0.00,WeatherCatV1.21B27,2013-10-09 14:53:00,
2013-10-09 10:58:00,56.8,43.9,30.42,South,180,0.0,3.0,62,0.00,,,0.00,WeatherCatV1.21B27,2013-10-09 14:58:00,
2013-10-09 11:03:00,56.8,43.1,30.41,NNE,23,4.0,4.0,60,0.00,,,0.00,WeatherCatV1.21B27,2013-10-09 15:03:00,
2013-10-09 11:08:00,57.5,44.2,30.41,East,91,0.0,4.0,61,0.00,,,0.00,WeatherCatV1.21B27,2013-10-09 15:08:00,
2013-10-09 11:13:00,57.3,43.5,30.40,SSW,194,4.0,7.0,60,0.00,,,0.00,WeatherCatV1.21B27,2013-10-09 15:13:00,
2013-10-09 11:18:00,57.0,42.4,30.41,NNW,331,4.0,5.0,58,0.00,,,0.00,WeatherCatV1.21B27,2013-10-09 15:18:00,
2013-10-09 11:23:00,57.4,43.6,30.41,ENE,78,1.0,3.0,60,0.00,,,0.00,WeatherCatV1.21B27,2013-10-09 15:23:00,
2013-10-09 11:28:00,57.8,43.1,30.40,North,0,4.0,5.0,58,0.00,,,0.00,WeatherCatV1.21B27,2013-10-09 15:28:00,
2013-10-09 11:33:00,57.6,43.4,30.40,North,355,1.0,6.0,59,0.00,,,0.00,WeatherCatV1.21B27,2013-10-09 15:33:00,
2013-10-09 11:38:00,58.1,43.8,30.41,NW,304,4.0,5.0,59,0.00,,,0.00,WeatherCatV1.21B27,2013-10-09 15:38:00,
2013-10-09 11:43:00,58.6,44.8,30.40,North,0,1.0,2.0,60,0.00,,,0.00,WeatherCatV1.21B27,2013-10-09 15:43:00,
2013-10-09 11:48:00,58.8,44.9,30.40,SSW,206,0.0,1.0,60,0.00,,,0.00,WeatherCatV1.21B27,2013-10-09 15:48:00,
2013-10-09 11:53:00,59.2,44.9,30.40,West,279,4.0,5.0,59,0.00,,,0.00,WeatherCatV1.21B27,2013-10-09 15:53:00,
2013-10-09 11:58:00,58.9,44.2,30.40,ENE,67,1.0,2.0,58,0.00,,,0.00,WeatherCatV1.21B27,2013-10-09 15:58:00,
2013-10-09 12:03:00,58.8,44.0,30.40,South,178,1.0,3.0,58,0.00,,,0.00,WeatherCatV1.21B27,2013-10-09 16:03:00,
2013-10-09 12:08:00,59.3,45.8,30.40,WNW,302,1.0,2.0,61,0.00,,,0.00,WeatherCatV1.21B27,2013-10-09 16:08:00,
2013-10-09 12:13:00,59.1,44.3,30.40,SW,228,0.0,2.0,58,0.00,,,0.00,WeatherCatV1.21B27,2013-10-09 16:13:00,
2013-10-09 12:18:00,58.8,43.6,30.40,NE,43,2.0,4.0,57,0.00,,,0.00,WeatherCatV1.21B27,2013-10-09 16:18:00,
2013-10-09 12:23:00,59.6,45.2,30.40,South,171,1.0,1.0,59,0.00,,,0.00,WeatherCatV1.21B27,2013-10-09 16:23:00,
2013-10-09 12:28:00,60.1,44.3,30.40,WSW,238,1.0,5.0,56,0.00,,,0.00,WeatherCatV1.21B27,2013-10-09 16:28:00,
2013-10-09 12:33:00,59.6,43.9,30.40,NW,306,4.0,4.0,56,0.00,,,0.00,WeatherCatV1.21B27,2013-10-09 16:33:00,
2013-10-09 12:38:00,59.8,43.1,30.40,NNW,327,0.0,6.0,54,0.00,,,0.00,WeatherCatV1.21B27,2013-10-09 16:38:00,
2013-10-09 12:43:00,60.0,44.7,30.40,WSW,243,4.0,7.0,57,0.00,,,0.00,WeatherCatV1.21B27,2013-10-09 16:43:00,
2013-10-09 12:48:00,60.4,44.2,30.39,East,91,0.0,3.0,55,0.00,,,0.00,WeatherCatV1.21B27,2013-10-09 16:48:00,
2013-10-09 12:53:00,60.5,43.3,30.39,NW,306,4.0,4.0,53,0.00,,,0.00,WeatherCatV1.21B27,2013-10-09 16:53:00,
2013-10-09 12:58:00,59.7,43.0,30.39,NNW,342,0.0,3.0,54,0.00,,,0.00,WeatherCatV1.21B27,2013-10-09 16:58:00,
2013-10-09 13:03:00,59.0,42.8,30.39,North,351,1.0,2.0,55,0.00,,,0.00,WeatherCatV1.21B27,2013-10-09 17:03:00,
2013-10-09 13:08:00,59.0,43.8,30.39,South,171,0.0,2.0,57,0.00,,,0.00,WeatherCatV1.21B27,2013-10-09 17:08:00,
2013-10-09 13:13:00,59.3,44.1,30.38,SE,132,1.0,2.0,57,0.00,,,0.00,WeatherCatV1.21B27,2013-10-09 17:13:00,
2013-10-09 13:18:00,59.8,43.6,30.38,WNW,299,0.0,3.0,55,0.00,,,0.00,WeatherCatV1.21B27,2013-10-09 17:18:00,
2013-10-09 13:23:00,60.1,43.9,30.38,WNW,302,5.0,7.0,55,0.00,,,0.00,WeatherCatV1.21B27,2013-10-09 17:23:00,
2013-10-09 13:28:00,60.7,45.4,30.38,East,82,0.0,2.0,57,0.00,,,0.00,WeatherCatV1.21B27,2013-10-09 17:28:00,
2013-10-09 13:33:00,60.7,44.0,30.38,ENE,67,2.0,6.0,54,0.00,,,0.00,WeatherCatV1.21B27,2013-10-09 17:33:00,
2013-10-09 13:38:00,61.3,44.5,30.38,ENE,73,2.0,4.0,54,0.00,,,0.00,WeatherCatV1.21B27,2013-10-09 17:38:00,
2013-10-09 13:43:00,61.3,44.0,30.38,North,355,1.0,4.0,53,0.00,,,0.00,WeatherCatV1.21B27,2013-10-09 17:43:00,
2013-10-09 13:48:00,61.7,44.9,30.37,West,274,1.0,2.0,54,0.00,,,0.00,WeatherCatV1.21B27,2013-10-09 17:48:00,
2013-10-09 13:53:00,62.2,44.8,30.37,NNW,343,2.0,3.0,53,0.00,,,0.00,WeatherCatV1.21B27,2013-10-09 17:53:00,
2013-10-09 13:58:00,62.1,44.3,30.37,NNE,12,0.0,2.0,52,0.00,,,0.00,WeatherCatV1.21B27,2013-10-09 17:58:00,
2013-10-09 14:03:00,62.3,44.5,30.37,WNW,286,1.0,1.0,52,0.00,,,0.00,WeatherCatV1.21B27,2013-10-09 18:03:00,
2013-10-09 14:08:00,62.4,44.0,30.37,North,0,3.0,5.0,51,0.00,,,0.00,WeatherCatV1.21B27,2013-10-09 18:08:00,
2013-10-09 14:13:00,62.1,43.2,30.37,East,89,2.0,5.0,50,0.00,,,0.00,WeatherCatV1.21B27,2013-10-09 18:13:00,
2013-10-09 14:18:00,62.6,45.2,30.37,West,268,2.0,3.0,53,0.00,,,0.00,WeatherCatV1.21B27,2013-10-09 18:18:00,
2013-10-09 14:23:00,62.4,43.5,30.37,NW,309,2.0,3.0,50,0.00,,,0.00,WeatherCatV1.21B27,2013-10-09 18:23:00,
2013-10-09 14:28:00,62.3,43.9,30.37,NW,312,0.0,1.0,51,0.00,,,0.00,WeatherCatV1.21B27,2013-10-09 18:28:00,
2013-10-09 14:33:00,62.5,44.6,30.36,WNW,298,0.0,7.0,52,0.00,,,0.00,WeatherCatV1.21B27,2013-10-09 18:33:00,
2013-10-09 14:38:00,62.3,43.4,30.36,SSE,165,1.0,3.0,50,0.00,,,0.00,WeatherCatV1.21B27,2013-10-09 18:38:00,
2013-10-09 14:43:00,62.2,43.8,30.36,East,96,0.0,3.0,51,0.00,,,0.00,WeatherCatV1.21B27,2013-10-09 18:43:00,
2013-10-09 14:48:00,62.7,45.3,30.36,South,180,1.0,3.0,53,0.00,,,0.00,WeatherCatV1.21B27,2013-10-09 18:48:00,
2013-10-09 14:53:00,62.8,43.3,30.36,WNW,293,2.0,3.0,49,0.00,,,0.00,WeatherCatV1.21B27,2013-10-09 18:53:00,
2013-10-09 14:58:00,63.5,44.5,30.36,NNW,338,0.0,2.0,50,0.00,,,0.00,WeatherCatV1.21B27,2013-10-09 18:58:00,
2013-10-09 15:03:00,63.6,43.5,30.36,ESE,115,3.0,6.0,48,0.00,,,0.00,WeatherCatV1.21B27,2013-10-09 19:03:00,
2013-10-09 15:08:00,63.3,43.3,30.36,East,95,0.0,2.0,48,0.00,,,0.00,WeatherCatV1.21B27,2013-10-09 19:08:00,
2013-10-09 15:13:00,63.2,43.2,30.36,ESE,111,0.0,2.0,48,0.00,,,0.00,WeatherCatV1.21B27,2013-10-09 19:13:00,
2013-10-09 15:18:00,63.3,43.3,30.36,NW,319,0.0,2.0,48,0.00,,,0.00,WeatherCatV1.21B27,2013-10-09 19:18:00,
2013-10-09 15:23:00,63.1,43.6,30.35,SE,132,1.0,1.0,49,0.00,,,0.00,WeatherCatV1.21B27,2013-10-09 19:23:00,
2013-10-09 15:28:00,63.1,44.7,30.36,NW,313,1.0,1.0,51,0.00,,,0.00,WeatherCatV1.21B27,2013-10-09 19:28:00,
2013-10-09 15:33:00,63.2,43.7,30.35,North,355,0.0,3.0,49,0.00,,,0.00,WeatherCatV1.21B27,2013-10-09 19:33:00,
2013-10-09 15:38:00,63.5,43.5,30.35,NNE,28,0.0,0.0,48,0.00,,,0.00,WeatherCatV1.21B27,2013-10-09 19:38:00,
2013-10-09 15:43:00,63.5,42.9,30.35,NE,44,1.0,1.0,47,0.00,,,0.00,WeatherCatV1.21B27,2013-10-09 19:43:00,
2013-10-09 15:48:00,63.4,42.8,30.35,WSW,251,1.0,2.0,47,0.00,,,0.00,WeatherCatV1.21B27,2013-10-09 19:48:00,
2013-10-09 15:53:00,63.3,42.7,30.35,WNW,300,1.0,1.0,47,0.00,,,0.00,WeatherCatV1.21B27,2013-10-09 19:53:00,
2013-10-09 15:58:00,63.2,42.6,30.35,NW,312,0.0,3.0,47,0.00,,,0.00,WeatherCatV1.21B27,2013-10-09 19:58:00,
2013-10-09 16:03:00,63.1,42.5,30.35,WNW,299,0.0,3.0,47,0.00,,,0.00,WeatherCatV1.21B27,2013-10-09 20:03:00,
2013-10-09 16:08:00,63.2,44.8,30.35,NW,307,1.0,1.0,51,0.00,,,0.00,WeatherCatV1.21B27,2013-10-09 20:08:00,
2013-10-09 16:13:00,62.9,44.0,30.35,East,101,0.0,0.0,50,0.00,,,0.00,WeatherCatV1.21B27,2013-10-09 20:13:00,
2013-10-09 16:18:00,63.0,43.0,30.35,East,101,0.0,0.0,48,0.00,,,0.00,WeatherCatV1.21B27,2013-10-09 20:18:00,
2013-10-09 16:23:00,63.0,43.5,30.34,ENE,76,1.0,2.0,49,0.00,,,0.00,WeatherCatV1.21B27,2013-10-09 20:23:00,
2013-10-09 16:28:00,62.7,43.8,30.34,ENE,76,0.0,0.0,50,0.00,,,0.00,WeatherCatV1.21B27,2013-10-09 20:28:00,
2013-10-09 16:33:00,62.6,44.7,30.34,ENE,76,0.0,0.0,52,0.00,,,0.00,WeatherCatV1.21B27,2013-10-09 20:33:00,
2013-10-09 16:38:00,62.3,45.0,30.34,ENE,76,0.0,1.0,53,0.00,,,0.00,WeatherCatV1.21B27,2013-10-09 20:38:00,
2013-10-09 16:43:00,62.2,44.8,30.34,ENE,76,0.0,0.0,53,0.00,,,0.00,WeatherCatV1.21B27,2013-10-09 20:43:00,
2013-10-09 16:48:00,62.3,43.9,30.34,ENE,76,0.0,0.0,51,0.00,,,0.00,WeatherCatV1.21B27,2013-10-09 20:48:00,
2013-10-09 16:53:00,62.1,45.7,30.34,ENE,76,0.0,0.0,55,0.00,,,0.00,WeatherCatV1.21B27,2013-10-09 20:53:00,
2013-10-09 16:58:00,61.9,46.0,30.35,ENE,76,0.0,0.0,56,0.00,,,0.00,WeatherCatV1.21B27,2013-10-09 20:58:00,
2013-10-09 17:03:00,61.5,47.0,30.34,ENE,76,0.0,0.0,59,0.00,,,0.00,WeatherCatV1.21B27,2013-10-09 21:03:00,
2013-10-09 17:08:00,61.3,46.8,30.34,ENE,76,0.0,0.0,59,0.00,,,0.00,WeatherCatV1.21B27,2013-10-09 21:08:00,
2013-10-09 17:13:00,61.0,47.0,30.35,ENE,76,0.0,0.0,60,0.00,,,0.00,WeatherCatV1.21B27,2013-10-09 21:13:00,
2013-10-09 17:18:00,60.7,46.7,30.34,ENE,76,0.0,0.0,60,0.00,,,0.00,WeatherCatV1.21B27,2013-10-09 21:18:00,
2013-10-09 17:23:00,60.4,47.3,30.34,ENE,76,0.0,0.0,62,0.00,,,0.00,WeatherCatV1.21B27,2013-10-09 21:23:00,
2013-10-09 17:28:00,60.1,47.0,30.34,ENE,76,0.0,0.0,62,0.00,,,0.00,WeatherCatV1.21B27,2013-10-09 21:28:00,
2013-10-09 17:33:00,59.8,47.6,30.34,ENE,76,0.0,0.0,64,0.00,,,0.00,WeatherCatV1.21B27,2013-10-09 21:33:00,
2013-10-09 17:38:00,59.5,48.1,30.34,ENE,76,0.0,0.0,66,0.00,,,0.00,WeatherCatV1.21B27,2013-10-09 21:38:00,
2013-10-09 17:43:00,59.2,48.2,30.34,ENE,76,0.0,0.0,67,0.00,,,0.00,WeatherCatV1.21B27,2013-10-09 21:43:00,
2013-10-09 17:48:00,59.0,48.1,30.33,ENE,76,0.0,0.0,67,0.00,,,0.00,WeatherCatV1.21B27,2013-10-09 21:48:00,
2013-10-09 17:53:00,58.8,48.7,30.33,ENE,76,0.0,0.0,69,0.00,,,0.00,WeatherCatV1.21B27,2013-10-09 21:53:00,
2013-10-09 17:58:00,58.5,48.4,30.33,ENE,76,0.0,0.0,69,0.00,,,0.00,WeatherCatV1.21B27,2013-10-09 21:58:00,
2013-10-09 18:03:00,58.2,48.5,30.33,ENE,76,0.0,0.0,70,0.00,,,0.00,WeatherCatV1.21B27,2013-10-09 22:03:00,
2013-10-09 18:08:00,57.8,47.7,30.33,ENE,76,0.0,0.0,69,0.00,,,0.00,WeatherCatV1.21B27,2013-10-09 22:08:00,
2013-10-09 18:13:00,57.6,47.9,30.33,ENE,76,0.0,0.0,70,0.00,,,0.00,WeatherCatV1.21B27,2013-10-09 22:13:00,
2013-10-09 18:18:00,57.3,48.0,30.33,ENE,76,0.0,0.0,71,0.00,,,0.00,WeatherCatV1.21B27,2013-10-09 22:18:00,
2013-10-09 18:23:00,56.9,48.0,30.33,ENE,76,0.0,0.0,72,0.00,,,0.00,WeatherCatV1.21B27,2013-10-09 22:23:00,
2013-10-09 18:28:00,56.5,48.0,30.33,ENE,76,0.0,0.0,73,0.00,,,0.00,WeatherCatV1.21B27,2013-10-09 22:28:00,
2013-10-09 18:33:00,56.3,47.8,30.33,ENE,76,0.0,0.0,73,0.00,,,0.00,WeatherCatV1.21B27,2013-10-09 22:33:00,
2013-10-09 18:38:00,56.1,47.9,30.33,ENE,76,0.0,0.0,74,0.00,,,0.00,WeatherCatV1.21B27,2013-10-09 22:38:00,
2013-10-09 18:43:00,55.9,47.7,30.33,ENE,76,0.0,0.0,74,0.00,,,0.00,WeatherCatV1.21B27,2013-10-09 22:43:00,
2013-10-09 18:48:00,55.9,47.7,30.33,ENE,76,0.0,0.0,74,0.00,,,0.00,WeatherCatV1.21B27,2013-10-09 22:48:00,
2013-10-09 18:53:00,55.9,46.6,30.33,ENE,76,0.0,0.0,71,0.00,,,0.00,WeatherCatV1.21B27,2013-10-09 22:53:00,
2013-10-09 18:58:00,55.8,46.9,30.33,ENE,74,0.0,0.0,72,0.00,,,0.00,WeatherCatV1.21B27,2013-10-09 22:58:00,
2013-10-09 19:03:00,55.8,46.5,30.33,NE,51,0.0,0.0,71,0.00,,,0.00,WeatherCatV1.21B27,2013-10-09 23:03:00,
2013-10-09 19:08:00,55.6,46.3,30.33,NE,51,0.0,0.0,71,0.00,,,0.00,WeatherCatV1.21B27,2013-10-09 23:08:00,
2013-10-09 19:13:00,55.5,46.2,30.33,NE,51,0.0,0.0,71,0.00,,,0.00,WeatherCatV1.21B27,2013-10-09 23:13:00,
2013-10-09 19:18:00,55.2,46.0,30.33,NE,51,0.0,0.0,71,0.00,,,0.00,WeatherCatV1.21B27,2013-10-09 23:18:00,
2013-10-09 19:23:00,55.1,46.6,30.33,North,350,2.0,2.0,73,0.00,,,0.00,WeatherCatV1.21B27,2013-10-09 23:23:00,
2013-10-09 19:28:00,55.4,45.8,30.33,NNE,29,0.0,0.0,70,0.00,,,0.00,WeatherCatV1.21B27,2013-10-09 23:28:00,
2013-10-09 19:33:00,55.2,46.0,30.33,North,9,0.0,0.0,71,0.00,,,0.00,WeatherCatV1.21B27,2013-10-09 23:33:00,
2013-10-09 19:38:00,55.1,45.5,30.33,ESE,115,0.0,0.0,70,0.00,,,0.00,WeatherCatV1.21B27,2013-10-09 23:38:00,
2013-10-09 19:43:00,55.0,45.0,30.33,ESE,115,0.0,0.0,69,0.00,,,0.00,WeatherCatV1.21B27,2013-10-09 23:43:00,
2013-10-09 19:48:00,55.1,45.1,30.33,East,99,0.0,0.0,69,0.00,,,0.00,WeatherCatV1.21B27,2013-10-09 23:48:00,
2013-10-09 19:53:00,54.8,45.2,30.33,East,99,0.0,0.0,70,0.00,,,0.00,WeatherCatV1.21B27,2013-10-09 23:53:00,
2013-10-09 19:58:00,54.6,45.4,30.33,ENE,77,0.0,0.0,71,0.00,,,0.00,WeatherCatV1.21B27,2013-10-09 23:58:00,
2013-10-09 20:03:00,54.5,45.3,30.33,ENE,77,0.0,1.0,71,0.00,,,0.00,WeatherCatV1.21B27,2013-10-10 00:03:00,
2013-10-09 20:08:00,54.4,45.6,30.33,East,88,0.0,1.0,72,0.00,,,0.00,WeatherCatV1.21B27,2013-10-10 00:08:00,
2013-10-09 20:13:00,54.3,45.1,30.32,East,88,0.0,0.0,71,0.00,,,0.00,WeatherCatV1.21B27,2013-10-10 00:13:00,
2013-10-09 20:18:00,54.4,44.8,30.33,East,88,0.0,0.0,70,0.00,,,0.00,WeatherCatV1.21B27,2013-10-10 00:18:00,
2013-10-09 20:23:00,54.4,44.4,30.33,East,88,0.0,0.0,69,0.00,,,0.00,WeatherCatV1.21B27,2013-10-10 00:23:00,
2013-10-09 20:28:00,54.2,44.6,30.33,East,89,0.0,0.0,70,0.00,,,0.00,WeatherCatV1.21B27,2013-10-10 00:28:00,
2013-10-09 20:33:00,54.1,44.2,30.33,East,89,0.0,0.0,69,0.00,,,0.00,WeatherCatV1.21B27,2013-10-10 00:33:00,
2013-10-09 20:38:00,54.0,44.1,30.33,East,89,0.0,0.0,69,0.00,,,0.00,WeatherCatV1.21B27,2013-10-10 00:38:00,
2013-10-09 20:43:00,53.7,44.2,30.33,East,89,0.0,0.0,70,0.00,,,0.00,WeatherCatV1.21B27,2013-10-10 00:43:00,
2013-10-09 20:48:00,53.5,44.0,30.33,East,89,0.0,0.0,70,0.00,,,0.00,WeatherCatV1.21B27,2013-10-10 00:48:00,
2013-10-09 20:53:00,53.3,43.8,30.33,East,89,0.0,0.0,70,0.00,,,0.00,WeatherCatV1.21B27,2013-10-10 00:53:00,
2013-10-09 20:58:00,53.2,44.0,30.33,East,89,0.0,0.0,71,0.00,,,0.00,WeatherCatV1.21B27,2013-10-10 00:58:00,
2013-10-09 21:03:00,53.0,43.8,30.33,East,89,0.0,0.0,71,0.00,,,0.00,WeatherCatV1.21B27,2013-10-10 01:03:00,
2013-10-09 21:08:00,52.7,43.9,30.33,East,89,0.0,0.0,72,0.00,,,0.00,WeatherCatV1.21B27,2013-10-10 01:08:00,
2013-10-09 21:13:00,52.5,44.1,30.33,East,89,0.0,0.0,73,0.00,,,0.00,WeatherCatV1.21B27,2013-10-10 01:13:00,
2013-10-09 21:18:00,52.4,44.0,30.33,East,89,0.0,0.0,73,0.00,,,0.00,WeatherCatV1.21B27,2013-10-10 01:18:00,
2013-10-09 21:23:00,52.3,44.3,30.33,East,89,0.0,0.0,74,0.00,,,0.00,WeatherCatV1.21B27,2013-10-10 01:23:00,
2013-10-09 21:28:00,52.1,44.4,30.33,East,89,0.0,0.0,75,0.00,,,0.00,WeatherCatV1.21B27,2013-10-10 01:28:00,
2013-10-09 21:33:00,51.9,44.2,30.33,East,89,0.0,0.0,75,0.00,,,0.00,WeatherCatV1.21B27,2013-10-10 01:33:00,
2013-10-09 21:38:00,51.9,44.6,30.33,East,89,0.0,0.0,76,0.00,,,0.00,WeatherCatV1.21B27,2013-10-10 01:38:00,
2013-10-09 21:43:00,51.7,44.4,30.33,East,89,0.0,0.0,76,0.00,,,0.00,WeatherCatV1.21B27,2013-10-10 01:43:00,
2013-10-09 21:48:00,51.6,44.6,30.33,East,89,0.0,0.0,77,0.00,,,0.00,WeatherCatV1.21B27,2013-10-10 01:48:00,
2013-10-09 21:53:00,51.5,44.9,30.33,East,89,0.0,0.0,78,0.00,,,0.00,WeatherCatV1.21B27,2013-10-10 01:53:00,
2013-10-09 21:58:00,51.4,44.8,30.33,East,89,0.0,0.0,78,0.00,,,0.00,WeatherCatV1.21B27,2013-10-10 01:58:00,
2013-10-09 22:03:00,51.2,44.6,30.33,East,89,0.0,0.0,78,0.00,,,0.00,WeatherCatV1.21B27,2013-10-10 02:03:00,
2013-10-09 22:08:00,51.0,44.7,30.33,East,89,0.0,0.0,79,0.00,,,0.00,WeatherCatV1.21B27,2013-10-10 02:08:00,
2013-10-09 22:13:00,50.8,44.5,30.33,East,89,0.0,0.0,79,0.00,,,0.00,WeatherCatV1.21B27,2013-10-10 02:13:00,
2013-10-09 22:18:00,50.6,44.3,30.33,East,89,0.0,0.0,79,0.00,,,0.00,WeatherCatV1.21B27,2013-10-10 02:18:00,
2013-10-09 22:23:00,50.4,44.1,30.34,East,89,0.0,0.0,79,0.00,,,0.00,WeatherCatV1.21B27,2013-10-10 02:23:00,
2013-10-09 22:28:00,50.3,44.0,30.34,East,89,0.0,0.0,79,0.00,,,0.00,WeatherCatV1.21B27,2013-10-10 02:28:00,
2013-10-09 22:33:00,50.1,43.8,30.34,East,89,0.0,0.0,79,0.00,,,0.00,WeatherCatV1.21B27,2013-10-10 02:33:00,
2013-10-09 22:38:00,50.1,43.8,30.33,East,89,0.0,0.0,79,0.00,,,0.00,WeatherCatV1.21B27,2013-10-10 02:38:00,
2013-10-09 22:43:00,49.9,43.7,30.33,East,89,0.0,0.0,79,0.00,,,0.00,WeatherCatV1.21B27,2013-10-10 02:43:00,
2013-10-09 22:48:00,49.6,43.7,30.33,East,89,0.0,0.0,80,0.00,,,0.00,WeatherCatV1.21B27,2013-10-10 02:48:00,
2013-10-09 22:53:00,49.4,43.5,30.33,East,89,0.0,0.0,80,0.00,,,0.00,WeatherCatV1.21B27,2013-10-10 02:53:00,
2013-10-09 22:58:00,49.2,43.3,30.33,East,89,0.0,0.0,80,0.00,,,0.00,WeatherCatV1.21B27,2013-10-10 02:58:00,
2013-10-09 23:03:00,49.1,43.2,30.33,East,89,0.0,0.0,80,0.00,,,0.00,WeatherCatV1.21B27,2013-10-10 03:03:00,
2013-10-09 23:08:00,49.0,43.1,30.33,East,89,0.0,0.0,80,0.00,,,0.00,WeatherCatV1.21B27,2013-10-10 03:08:00,
2013-10-09 23:13:00,49.0,43.1,30.33,East,89,0.0,0.0,80,0.00,,,0.00,WeatherCatV1.21B27,2013-10-10 03:13:00,
2013-10-09 23:18:00,49.1,43.2,30.32,East,89,0.0,0.0,80,0.00,,,0.00,WeatherCatV1.21B27,2013-10-10 03:18:00,
2013-10-09 23:23:00,48.9,43.0,30.32,East,89,0.0,0.0,80,0.00,,,0.00,WeatherCatV1.21B27,2013-10-10 03:23:00,
2013-10-09 23:28:00,48.8,42.9,30.32,NE,56,0.0,1.0,80,0.00,,,0.00,WeatherCatV1.21B27,2013-10-10 03:28:00,
2013-10-09 23:33:00,48.8,43.2,30.32,NE,56,0.0,0.0,81,0.00,,,0.00,WeatherCatV1.21B27,2013-10-10 03:33:00,
2013-10-09 23:38:00,48.7,43.1,30.32,NE,56,0.0,0.0,81,0.00,,,0.00,WeatherCatV1.21B27,2013-10-10 03:38:00,
2013-10-09 23:43:00,48.6,43.0,30.32,NE,56,0.0,1.0,81,0.00,,,0.00,WeatherCatV1.21B27,2013-10-10 03:43:00,
2013-10-09 23:48:00,48.5,42.9,30.32,NE,56,0.0,0.0,81,0.00,,,0.00,WeatherCatV1.21B27,2013-10-10 03:48:00,
2013-10-09 23:53:00,48.4,42.8,30.32,NE,56,0.0,0.0,81,0.00,,,0.00,WeatherCatV1.21B27,2013-10-10 03:53:00,
2013-10-09 23:58:00,48.6,43.0,30.32,NE,56,0.0,0.0,81,0.00,,,0.00,WeatherCatV1.21B27,2013-10-10 03:58:00,